Showing default

YAM-2, 48911

Orbit data source: Space-Track

YAM-2, 48911 is a payload satellite owned by Loft Orbital (US) in SSO that was launched on Wed, 30 Jun 2021 UTC via an FALCON 9 launch vehicle from the Air Force Eastern Test Range (AFETR). Payloads include a variety of satellites, spacecraft, and rockets equipped with specific instruments for various scientific and technological missions. These include communications satellites like Starlink; space stations such as the ISS; scientific satellites like the Hubble; Earth observation satellites from companies like Planet Labs, Umbra, and HawkEye 360; GPS; miniature CubeSats for education and research; and military/defense satellites.

Loading next visibility...
YAM-2 details
Identifier
48911, 2021-059AJ
Orbit
SSO
Last TLE update11 hours ago
Origin
Flag of USLoft Orbital (US)
ManufacturerBlue Canyon
MissionOperational Commercial Technology
Bus & MotorYAM, Unknown motor
Mass~80 kg wet, ~80 kg dry
Launch date (UTC)
2021-06-30 (4 years ago)
Launch vehicle
FALCON 9
Launch site
Air Force Eastern Test Range (AFETR)
Object type
Payload
Rocket body
Debris
Shape & HBRBox + 2 Pan, 1 m
Radar Cross Section0.446 m², Medium (>0.1 m² and < 1m²)

Expand to show TLE details & history

TLE from 11 hours ago
0 YAM-2
1 48911U 21059AJ  25014.86379651  .00045238  00000-0  76306-3 0  9994
2 48911  97.6618 177.9590 0005234  39.4661 320.6971 15.51519270197655
Epoch: 2025-01-14T20:43Z
Definitive object data (Epoch: 2025-01-14T20:43:52.018Z)
Latitude-0°
Longitude112.42788°
Altitude412.665 km
Speed7.665 km/s
True Right ascension11h 51m 50s
True Declination0° 00' 00"
Sunlit
Object was in full shadow at TLE epoch
Visualization TLE readout
Latitude-4.58775°
Longitude113.52291°
Altitude413.37 km
Speed7.664 km/s
Apparent Right ascension14h 57m 06s
Apparent Declination-38° 52' 31"
Sunlit
Object is in full shadow
Visualization observer readout
Local Sidereal Time08:12:20
Azimuth116.72° SE
Elevation-31.239°
Doppler factor1
Orbital elements
Apogee altitude412.777 km
Perigee altitude405.672 km
Semi-major axis6,787.362 km
Eccentricity0.0005234
Inclination97.6618°
RAAN177.959°
Arg. of periapsis39.4661°
True anomaly320.65909°
Mean anomaly320.6971°
Eccentric anomaly320.6781°
Mean motion3.88143 °/min
BSTAR0.00076306
Orbital period92.75 mins
Loading maneuver chart data...
Loading historical data...
Loading historical data...
Loading historical data...
Loading historical data...
Loading historical data...
Loading historical data...
Loading historical data...

YAM-2 Visibility forecast

Observer location: undefined°, undefined

Span
Click to sort rows by Start time (UTC) header in descending order
Start Az.
Max El. time (UTC)
Max El. Az.
Max El.
End time (UTC)
End Az.
5 mins2025-01-15 10:47:46.946Z169.081° S2025-01-15 10:49:46.946Z183.195° SSW43.569°2025-01-15 10:52:46.946Z346.347° N
4 mins2025-01-15 23:36:46.946Z14.513° NNE2025-01-15 23:38:46.946Z164.788° S44.54°2025-01-15 23:40:46.946Z190.854° SSW
|